DELTA 1 DEB, 10834

Orbit data source: Space-Track

DELTA 1 DEB, 10834 is space debris in SSO originally from a launch on Thu, 29 Jul 1976 UTC launched from the Air Force Western Test Range (AFWTR). Debris objects in space refer to the collection of defunct objects orbiting the Earth. Examples of debris include non-operational satellites, rocket bodies, and fragments generated from explosions, collisions, or faulty payload assembly.

Loading next visibility...
Identifier
10834, 1976-077CE
Orbit
SSO
Country
Flag of USUS
Related business
Manufacturer
Unknown
Mission
Spacecraft
Bus & Motor
Unknown
Mass
Unknown
Launch date (UTC)
1976-07-29 (50 years ago)
Launch vehicle
Unknown
Launch site
Air Force Western Test Range (AFWTR)
Object type
Payload
Rocket body
Debris
Shape & HBR
Unknown shape, 0.2 m
Radar Cross Section
Small (<0.1 m²)

Expand to show TLE details & history
Last TLE update: 1 day ago

TLE from 1 day ago
0 DELTA 1 DEB
1 10834U 76077CE  26033.41400545  .00007946  00000-0  77177-1 0  9996
2 10834 100.3736 350.3275 0127403 143.5567 342.3445 12.17862526188924
Epoch: 2026-02-02T09:56Z
TLE epoch observation values (Epoch: 2026-02-02T09:56:10.070Z)
Latitude
53.34667°
Longitude
-97.1538°
Altitude
1,513.643 km
Speed
7.156 km/s
True Right ascension
12h 17m 59s
True Declination
53° 11' 51"
Sunlit
Object was in full shadow at epoch
Visualization orbit readout
Latitude
Unknown
Longitude
Unknown
Altitude
Unknown
Speed
Unknown
Apparent Right ascension
Unknown
Apparent Declination
Unknown
Sunlit
N/A
Visualization observer readout
Local Sidereal Time
11:43:05
Azimuth
Unknown
Elevation
Unknown
Doppler factor
Unknown
Orbital elements
Apogee altitude
1,701.015 km
Perigee altitude
1,497.743 km
Semi-major axis
7,977.516 km
Eccentricity
0.01274
Inclination
100.3736°
RAAN
350.3275°
Arg. of periapsis
143.5567°
True anomaly
341.8949°
Mean anomaly
342.3445°
Eccentric anomaly
342.12039°
Mean motion
3.04608 °/min
Orbital period
118.18 mins
BSTAR
0.077177
Loading maneuver chart data...
Computing Atmospheric mass density...
Loading historical data...
Loading historical data...
Loading historical data...
Loading historical data...
Loading historical data...
Loading historical data...
Loading historical data...

Documentation

Showing up to 5 results
|